C/2003 E1 (NEAT)                                                      

Epoch 2004 Feb. 5.0 TT = JDT 2453040.5  

T 2004 Feb. 13.63496 TT                                 Nakano

q   3.2449052            (2000.0)            P               Q

n   0.01938313     Peri.  103.86647     -0.37570145     +0.84690169

a  13.7252456      Node   137.06944     -0.90673717     -0.41983423

e   0.7635813      Incl.   33.53784     +0.19151011     -0.32633840

P  50.85 (+/- 0.07 day)

From 215 observations 2003 Mar. 9-2004 July 31, mean residual 0".60.

Residuals in seconds of arc 

2003/                     030408 118  0.2+  0.2+    040221 A33  1.2+  0.3-  

030309 644  0.2+  0.6+    030409 J95  0.9-  0.0     040221 A33  0.1+  0.0   

030309 644  0.0   0.6+    030409 J95  0.2-  0.1-    040221 A33  0.2+  0.8-  

030309 644  0.7+  0.9+    030420 246  1.2+  0.5-    040227 349  0.5-  0.3+  

030310 J95  0.4-  0.3+    030420 246  1.2+  0.5-    040227 349  0.8-  0.5+  

030310 J95  0.3+  0.1+    030420 246  0.7+  0.6-    040227 349  0.2-  0.3+  

030310 926  0.7-  0.5+    030420 246  0.9+  0.5-    040318 360  0.1-  0.2+  

030310 926  0.3-  0.4-    030420 246  0.8+  0.4-    040318 360  0.5+  0.4+  

030310 926  0.6-  0.0     030420 246  0.4+  0.2-    040327 349  0.5-  0.3+  

030310 106  0.8-  1.5+    030420 246  0.5+  0.4-    040327 349  0.2-  0.1-  

030311 106  0.4-  0.0     030421 360  1.2-  0.5+    040327 349  0.4-  0.1-  

030311 106  0.5-  0.2-    030421 360  0.9-  0.7+    040415 704  1.0+  0.4-  

030311 649  0.3-  0.1-    030421 360  0.4-  0.3+    040415 704  1.3+  1.2-  

030311 649  0.1-  0.2-    030421 213  0.4+  1.2-    040415 704  0.8+  0.4+  

030311 649  0.7-  0.0     030427 H41  1.1+  1.9+    040415 704  0.0   0.1-  

030311 644  1.1+  0.6+    030428 213  0.4+  0.2-    040427 D74 (2.9+  0.1-) 

030311 670  0.4-  0.6+    030428 213  0.3+  0.3-    040427 D74  0.3+  0.5-  

030311 644  0.0   0.2-    030428 213  0.4+  0.7-    040428 360  0.0   0.2+  

030311 670  0.4-  0.6-    030430 H41  0.8-  0.6-    040428 360  0.2+  0.2+  

030311 644  0.4+  0.5+    030502 360  0.1+  0.4-    040516 130  0.3+  0.1+  

030312 670  1.1+  0.8+    030502 360  0.0   0.5-    040516 130  0.1+  0.1+  

030312 670  0.8+  0.9+    030503 A02  0.5-  0.5-    040517 215  0.3+  0.3+  

030312 673  0.2+  0.1-    030503 A02  0.4+  0.2+    040523 D74 (1.5+  5.4-) 

030312 673  0.3+  0.1+    030503 A02  1.1+  0.6+    040523 D74 (0.2+  5.7-) 

030312 673  0.3+  0.4+    030503 213  1.3-  0.4-    040525 360  0.2+  0.1+  

030312 673  0.4+  0.7+    030503 213  0.4+  0.2-    040525 360  0.4+  0.2+  

030313 J95  0.6-  0.1+    030503 213 (2.8+  0.7-)   040528 704  1.0+  0.5+  

030313 J95  0.2+  0.2-    030503 A02  0.4-  0.9+    040528 704  0.6+  1.5+  

030321 204 (3.5+  0.0 )   030503 A02  0.1-  0.8+    040528 704  0.9+  0.5+  

030322 644  0.1+  0.0     030503 A02 (2.6+  0.1-)   040528 704  0.3-  0.5-  

030322 644  0.6+  0.9+    030517 213  1.1+  0.0     040610 704  1.2+  0.1+  

030322 644  0.3+  0.1-    030517 213  0.9+  0.0     040610 704  0.8+  0.0   

030322 644  0.3+  1.1+    030517 213  0.9-  0.2+    040610 704  0.0   0.6-  

030322 644  0.2+  0.0     030520 785 (2.5+  2.0+)   040610 704  1.0+  0.9-  

030322 644  0.4+  1.1+    030520 785  0.9+  1.3-    040612 704  0.2+  0.4+  

030322 J95  0.0   0.1+    030520 785  0.4-  1.5-    040612 704  0.2-  0.7+  

030322 J95  0.4-  0.6+    030522 620  0.3+  0.4-    040612 704  0.3-  0.3+  

030322 246  0.3-  0.3-    030522 H41  0.2+  0.0     040612 704  0.5-  0.1-  

030322 246  0.2+  0.1+    030522 H41  0.7+  0.9-    040612 704  0.8-  0.3-  

030322 246  0.1-  0.2-    030522 213  1.6-  0.6+    040613 704  0.2+  0.4+  

030322 246  0.1-  0.1+    030522 213  1.4-  0.9-    040613 704  0.4+  0.3+  

030322 246  0.2+  0.0     030522 213  0.0   0.0     040613 704  0.6-  0.5+  

030322 246  0.2-  0.2-    030523 360  0.2-  0.5-    040613 704  0.7-  0.1-  

030322 246  0.0   0.1+    030523 360  0.4-  0.3-    040614 704  0.5-  0.2+  

030322 246  0.2+  0.2-    030527 H41 (0.9+  2.4-)   040614 704  0.2-  0.4+  

030322 204  0.6+  0.1-    030528 H41  0.8-  1.0-    040614 704  0.1-  0.4+  

030322 204  0.1-  0.7+    030528 H41  0.8+  1.0-    040615 704  0.7+  0.7+  

030323 673  0.3+  0.4+    030530 H41  0.5+  0.1-    040615 704  0.2-  0.4+  

030323 673  0.1+  0.3+    030530 H41  0.0   0.2+    040615 704  1.1-  0.3-  

030323 673  0.1+  0.0     030530 118  1.1+  1.8-    040618 442  0.0   0.6-  

030323 673  0.2-  0.4+    030530 118  0.1-  0.6+    040619 730  0.4-  0.0   

030326 360  0.3+  0.1+    030531 H41  1.3+  0.2-    040619 730  0.0   0.1+  

030326 360  0.1+  0.1+    030531 H41  1.6+  1.7+    040619 730  0.6-  0.0   

030326 360  0.2+  0.1-    030601 360  0.0   0.3-    040619 730  0.3-  0.0   

030327 J95  0.2-  0.0     030601 360  0.1-  0.3-    040622 704  0.5+  0.0   

030327 J95  0.1-  0.3+    030629 699  0.0   1.3-    040622 704  0.7-  0.0   

030329 360  0.1+  0.2+    030629 699  0.2+  0.1-    040622 704  0.1-  0.6-  

030329 372  0.9-  1.1-    030629 699  0.8+  1.9-    040622 704  0.6-  0.1-  

030329 360  0.8-  0.1-    030629 699  0.3+  1.5-    040622 704  1.0-  0.8-  

030329 360  0.2-  0.1+    030706 620  0.1-  0.3-    040626 118  0.8-  0.5+  

030401 699  0.8-  0.4+    030706 620  0.5-  0.2-    040626 118  0.2+  0.5-  

030401 699  1.8-  0.8-    030706 620  0.1+  0.2-    040626 118  0.3-  0.1-  

030401 699  1.4-  0.9-    030717 442  0.7-  1.3+    040704 A30  0.1+  0.6-  

030401 699  1.2-  0.3-    2004/                     040704 A30  0.1+  0.8-  

030405 170  0.3+  0.2-    040122 349  0.7+  1.0-    040704 A30  0.4+  0.9-  

030405 170  0.3-  0.1+    040122 349  0.6+  0.9-    040716 D74  1.7-  0.8-  

030405 170  0.1-  0.2+    040122 349  0.5+  0.5-    040716 D74  0.9-  0.9-  

030405 170  0.1+  0.4+    040124 349  0.4-  0.5+    040716 213  0.7+  0.7+  

030405 372  1.2-  0.2-    040124 349  0.4-  0.2+    040716 213  0.4+  0.6+  

030406 360  0.3-  0.2+    040124 349  0.9-  0.5+    040716 213  0.3+  0.7+  

030406 360  0.4-  0.1+    040127 349  0.4+  0.7+    040720 A41 (1.0+  2.6+) 

030406 213 (7.5-  3.6-)   040127 349  0.3-  0.6+    040720 A41  0.1+  0.5+  

030408 372 (2.2-  0.5+)   040127 349  0.1+  0.8+    040731 673  0.5+  0.1-  

030408 118  0.2+  0.2-    040205 204  0.3-  0.1+    040731 673  0.0   0.0   

030408 118  0.3-  0.2+    040205 204  0.3-  0.3+    040731 673  0.2+  0.1+  

030408 118  0.1+  0.4-    040205 204  0.8+  0.3+    040731 673  0.1-  0.3-  

         **** Don't distribute anyone except personal use only ****

                (C) Copyright 2004 OAA/ComputingSection

write mail from CFAD0::NAKANO on 2004-08-04 23:10:27(JST).

---------------------------------------------------------------------------

    Syuichi Nakano, P. O. Box No. 32, Sumoto, Hyogo-Ken, 656-8691 Japan

     An Associate of the Minor Planet Center   snakano@cfa.harvard.edu

         http://www.oaa.gr.jp/   08-04-2004, 23:27:51 +09:00 (JST)

               OS/2 and Digital UNIX in Operating Systems

             **** Please reply ONLY to nakano@oaa.gr.jp ****



◎C/2003 E1の軌道と予報位置です



 上尾の門田健一氏から,昨年7月以来の再観測となる1月22日と24日の

観測が報告されました.氏の CCD全光度は,17.6等でした.



    C/2003 E1 (NEAT)                                                      

Epoch 2004 Feb. 5.0 TT = JDT 2453040.5  

T 2004 Feb. 13.63535 TT                                 Nakano

q   3.2449104            (2000.0)            P               Q

n   0.01937847     Peri.  103.86699     -0.37570040     +0.84690139

a  13.7274443      Node   137.06901     -0.90673845     -0.41983189

e   0.7636188      Incl.   33.53771     +0.19150612     -0.32634217

P  50.86 (+/- 0.18 day)

From 136 observations 2003 Mar. 9-2004 Jan. 24, mean residual 0".61.

Residuals in seconds of arc 

2003/                     030323 673  0.2+  0.0     030503 A02  0.3+  0.4+  

030309 644  0.3+  0.5+    030323 673  0.1-  0.3+    030503 A02  1.0+  0.8+  

030309 644  0.2+  0.4+    030326 360  0.3+  0.1+    030503 213  1.4-  0.3-  

030309 644  0.8+  0.7+    030326 360  0.2+  0.1+    030503 213  0.3+  0.1-  

030310 J95  0.3-  0.1+    030326 360  0.2+  0.1-    030503 213 (2.7+  0.6-) 

030310 J95  0.4+  0.1-    030327 J95  0.2-  0.0     030503 A02  0.5-  1.0+  

030310 926  0.5-  0.3+    030327 J95  0.1-  0.3+    030503 A02  0.2-  1.0+  

030310 926  0.2-  0.6-    030329 360  0.1+  0.3+    030503 A02 (2.5+  0.0 ) 

030310 926  0.5-  0.1-    030329 372  0.9-  1.1-    030517 213  0.9+  0.1+  

030310 106  0.7-  1.3+    030329 360  0.8-  0.1-    030517 213  0.8+  0.2+  

030311 106  0.2-  0.2-    030329 360  0.2-  0.1+    030517 213  1.0-  0.3+  

030311 106  0.3-  0.3-    030401 699  0.8-  0.4+    030520 785 (2.4+  2.1+) 

030311 649  0.2-  0.3-    030401 699  1.8-  0.7-    030520 785  0.8+  1.1-  

030311 649  0.0   0.3-    030401 699  1.3-  0.8-    030520 785  0.5-  1.3-  

030311 649  0.6-  0.1-    030401 699  1.2-  0.2-    030522 620  0.2+  0.3-  

030311 644  1.2+  0.5+    030405 170  0.2+  0.2-    030522 H41  0.1+  0.1+  

030311 670  0.3-  0.4+    030405 170  0.3-  0.2+    030522 H41  0.6+  0.8-  

030311 644  0.1+  0.3-    030405 170  0.1-  0.2+    030522 213  1.7-  0.8+  

030311 670  0.2-  0.8-    030405 170  0.1+  0.4+    030522 213  1.6-  0.8-  

030311 644  0.5+  0.3+    030405 372  1.2-  0.1-    030522 213  0.1-  0.2+  

030312 670  1.2+  0.6+    030406 360  0.3-  0.2+    030523 360  0.3-  0.4-  

030312 670  0.9+  0.7+    030406 360  0.4-  0.2+    030523 360  0.5-  0.1-  

030312 673  0.3+  0.2-    030406 213 (7.6-  3.6-)   030527 H41 (0.8+  2.2-) 

030312 673  0.5+  0.0     030408 372 (2.2-  0.6+)   030528 H41  0.9-  0.8-  

030312 673  0.4+  0.3+    030408 118  0.2+  0.2-    030528 H41  0.7+  0.9-  

030312 673  0.6+  0.5+    030408 118  0.3-  0.3+    030530 H41  0.4+  0.0   

030313 J95  0.5-  0.0     030408 118  0.1+  0.3-    030530 H41  0.1-  0.3+  

030313 J95  0.3+  0.3-    030408 118  0.1+  0.3+    030530 118  1.0+  1.7-  

